User: anonymous   Login
Location: Chaumontel
(49.1247°N, 2.4324°E)
Time: 00:16:03
(UTC+00:00)
Language:

Cosmos 1954 Rocket - Orbit

View from above orbital plane
View from above orbital plane
View from above satellite
View from above satellite

Ground track
Ground track

The orbit data is extracted from the following two-line orbital elements,

1 19257U 88053B   23154.52049024  .00000329  00000-0  11763-3 0  9994
2 19257  74.0463 172.8102 0021545 245.7672 227.2877 14.37842792831353
Epoch (UTC): 03 June 2023 12:29:30
Eccentricity: 0.0021545
inclination: 74.0463°
perigee height: 750 km
apogee height: 781 km
right ascension of ascending node: 172.8102°
argument of perigee: 245.7672°
revolutions per day: 14.37842792
mean anomaly at epoch: 227.2877°
orbit number at epoch: 83135

The dashed part of the orbit path shows where the satellite is in the earth's shadow,  

DLR